Time,TemperatureF,DewpointF,PressureIn,WindDirection,WindDirectionDegrees,WindSpeedMPH,WindSpeedGustMPH,Humidity,HourlyPrecipIn,Conditions,Clouds,dailyrainin,SoftwareType,DateUTC
2013-02-06 00:00:00,47.9,35.1,30.04,NE,44,0.0,0.0,61,0.00,,---,0.00,VWS V14.00,2013-02-06 06:00:00,
2013-02-06 00:03:00,48.0,35.2,30.04,NE,44,0.0,0.0,61,0.00,,---,0.00,VWS V14.00,2013-02-06 06:03:00,
2013-02-06 00:04:00,48.1,35.3,30.04,NE,44,0.0,0.0,61,0.00,,---,0.00,VWS V14.00,2013-02-06 06:04:00,
2013-02-06 00:05:00,48.1,35.3,30.04,NE,44,0.0,0.0,61,0.00,,---,0.00,VWS V14.00,2013-02-06 06:05:00,
2013-02-06 00:06:00,48.1,35.3,30.04,NE,44,0.0,0.0,61,0.00,,---,0.00,VWS V14.00,2013-02-06 06:06:00,
2013-02-06 00:07:00,48.1,35.3,30.04,NE,44,0.0,0.0,61,0.00,,---,0.00,VWS V14.00,2013-02-06 06:07:00,
2013-02-06 00:08:00,47.8,35.0,30.04,NE,44,0.0,0.0,61,0.00,,---,0.00,VWS V14.00,2013-02-06 06:08:00,
2013-02-06 00:09:00,48.0,35.2,30.04,NE,44,0.0,0.0,61,0.00,,---,0.00,VWS V14.00,2013-02-06 06:09:00,
2013-02-06 00:10:00,48.0,35.2,30.04,NE,44,0.0,0.0,61,0.00,,---,0.00,VWS V14.00,2013-02-06 06:10:00,
2013-02-06 00:15:00,47.8,35.0,30.04,NE,44,0.0,0.0,61,0.00,,---,0.00,VWS V14.00,2013-02-06 06:15:00,
2013-02-06 00:18:00,48.1,35.3,30.04,NE,44,0.0,0.0,61,0.00,,---,0.00,VWS V14.00,2013-02-06 06:18:00,
2013-02-06 00:19:00,47.6,34.8,30.04,NE,44,0.0,0.0,61,0.00,,---,0.00,VWS V14.00,2013-02-06 06:19:00,
2013-02-06 00:24:00,47.9,35.1,30.04,NE,44,0.0,0.0,61,0.00,,---,0.00,VWS V14.00,2013-02-06 06:24:00,
2013-02-06 00:26:00,47.1,35.2,30.04,NE,44,0.0,0.0,63,0.00,,---,0.00,VWS V14.00,2013-02-06 06:26:00,
2013-02-06 00:27:00,47.0,35.1,30.04,NE,44,0.0,0.0,63,0.00,,---,0.00,VWS V14.00,2013-02-06 06:27:00,
2013-02-06 00:30:00,47.5,35.1,30.04,NE,44,0.0,0.0,62,0.00,,---,0.00,VWS V14.00,2013-02-06 06:30:00,
2013-02-06 00:35:00,47.2,34.9,30.04,NE,44,0.0,0.0,62,0.00,,---,0.00,VWS V14.00,2013-02-06 06:35:00,
2013-02-06 00:36:00,46.2,34.7,30.04,NE,44,0.0,0.0,64,0.00,,---,0.00,VWS V14.00,2013-02-06 06:36:00,
2013-02-06 00:41:00,46.7,34.8,30.04,NE,44,0.0,0.0,63,0.00,,---,0.00,VWS V14.00,2013-02-06 06:41:00,
2013-02-06 00:47:00,46.1,34.6,30.04,NE,44,0.0,0.0,64,0.00,,---,0.00,VWS V14.00,2013-02-06 06:47:00,
2013-02-06 00:49:00,45.7,35.0,30.04,NE,44,0.0,0.0,66,0.00,,---,0.00,VWS V14.00,2013-02-06 06:49:00,
2013-02-06 00:50:00,45.7,35.0,30.04,NE,44,0.0,0.0,66,0.00,,---,0.00,VWS V14.00,2013-02-06 06:50:00,
2013-02-06 00:52:00,45.9,34.8,30.04,NE,44,0.0,0.0,65,0.00,,---,0.00,VWS V14.00,2013-02-06 06:52:00,
2013-02-06 00:57:00,45.7,35.0,30.04,NE,44,0.0,0.0,66,0.00,,---,0.00,VWS V14.00,2013-02-06 06:57:00,
2013-02-06 01:03:00,45.7,35.0,30.04,NE,44,0.0,0.0,66,0.00,,---,0.00,VWS V14.00,2013-02-06 07:03:00,
2013-02-06 01:08:00,45.6,34.9,30.04,NE,44,0.0,0.0,66,0.00,,---,0.00,VWS V14.00,2013-02-06 07:08:00,
2013-02-06 01:14:00,45.6,34.9,30.04,NE,44,0.0,0.0,66,0.00,,---,0.00,VWS V14.00,2013-02-06 07:14:00,
2013-02-06 01:19:00,45.8,35.1,30.04,NE,44,0.0,0.0,66,0.00,,---,0.00,VWS V14.00,2013-02-06 07:19:00,
2013-02-06 01:24:00,45.9,35.2,30.04,NE,44,0.0,0.0,66,0.00,,---,0.00,VWS V14.00,2013-02-06 07:24:00,
2013-02-06 01:29:00,46.0,34.9,30.03,NE,44,0.0,0.0,65,0.00,,---,0.00,VWS V14.00,2013-02-06 07:29:00,
2013-02-06 01:34:00,46.0,34.9,30.03,NE,44,0.0,0.0,65,0.00,,---,0.00,VWS V14.00,2013-02-06 07:34:00,
2013-02-06 01:39:00,45.9,34.8,30.03,NE,44,0.0,0.0,65,0.00,,---,0.00,VWS V14.00,2013-02-06 07:39:00,
2013-02-06 01:44:00,46.0,34.9,30.04,NE,44,0.0,0.0,65,0.00,,---,0.00,VWS V14.00,2013-02-06 07:44:00,
2013-02-06 01:50:00,45.9,34.8,30.04,NE,44,0.0,0.0,65,0.00,,---,0.00,VWS V14.00,2013-02-06 07:50:00,
2013-02-06 01:55:00,45.8,34.7,30.03,NE,44,0.0,0.0,65,0.00,,---,0.00,VWS V14.00,2013-02-06 07:55:00,
2013-02-06 02:00:00,45.7,35.0,30.03,NE,44,0.0,0.0,66,0.00,,---,0.00,VWS V14.00,2013-02-06 08:00:00,
2013-02-06 02:05:00,45.6,34.9,30.03,NE,44,0.0,0.0,66,0.00,,---,0.00,VWS V14.00,2013-02-06 08:05:00,
2013-02-06 02:10:00,45.5,34.8,30.03,NE,44,0.0,0.0,66,0.00,,---,0.00,VWS V14.00,2013-02-06 08:10:00,
2013-02-06 02:15:00,45.6,34.9,30.03,NE,44,0.0,0.0,66,0.00,,---,0.00,VWS V14.00,2013-02-06 08:15:00,
2013-02-06 02:21:00,45.6,34.9,30.03,NE,44,0.0,0.0,66,0.00,,---,0.00,VWS V14.00,2013-02-06 08:21:00,
2013-02-06 02:26:00,45.5,34.8,30.03,NE,44,0.0,0.0,66,0.00,,---,0.00,VWS V14.00,2013-02-06 08:26:00,
2013-02-06 02:31:00,45.3,34.6,30.03,NE,44,0.0,0.0,66,0.00,,---,0.00,VWS V14.00,2013-02-06 08:31:00,
2013-02-06 02:36:00,45.1,34.8,30.03,NE,44,0.0,0.0,67,0.00,,---,0.00,VWS V14.00,2013-02-06 08:36:00,
2013-02-06 02:42:00,45.0,34.3,30.03,NE,44,0.0,0.0,66,0.00,,---,0.00,VWS V14.00,2013-02-06 08:42:00,
2013-02-06 02:48:00,44.7,34.4,30.03,NE,44,0.0,0.0,67,0.00,,---,0.00,VWS V14.00,2013-02-06 08:48:00,
2013-02-06 02:53:00,44.6,34.3,30.03,NE,44,0.0,0.0,67,0.00,,---,0.00,VWS V14.00,2013-02-06 08:53:00,
2013-02-06 02:58:00,44.4,34.5,30.03,NE,44,0.0,0.0,68,0.00,,---,0.00,VWS V14.00,2013-02-06 08:58:00,
2013-02-06 03:04:00,44.1,34.2,30.03,NE,44,0.0,0.0,68,0.00,,---,0.00,VWS V14.00,2013-02-06 09:04:00,
2013-02-06 03:10:00,43.9,34.4,30.02,NE,44,0.0,0.0,69,0.00,,---,0.00,VWS V14.00,2013-02-06 09:10:00,
2013-02-06 03:15:00,43.7,34.2,30.02,NE,44,0.0,0.0,69,0.00,,---,0.00,VWS V14.00,2013-02-06 09:15:00,
2013-02-06 03:20:00,43.7,34.6,30.02,NE,44,0.0,0.0,70,0.00,,---,0.00,VWS V14.00,2013-02-06 09:20:00,
2013-02-06 03:25:00,43.8,34.7,30.02,NE,44,0.0,0.0,70,0.00,,---,0.00,VWS V14.00,2013-02-06 09:25:00,
2013-02-06 03:30:00,44.0,34.9,30.02,NE,44,0.0,0.0,70,0.00,,---,0.00,VWS V14.00,2013-02-06 09:30:00,
2013-02-06 03:36:00,43.8,34.7,30.02,NE,44,0.0,0.0,70,0.00,,---,0.00,VWS V14.00,2013-02-06 09:36:00,
2013-02-06 03:41:00,43.5,34.7,30.02,NE,44,0.0,0.0,71,0.00,,---,0.00,VWS V14.00,2013-02-06 09:41:00,
2013-02-06 03:47:00,43.4,34.6,30.02,NE,44,0.0,0.0,71,0.00,,---,0.00,VWS V14.00,2013-02-06 09:47:00,
2013-02-06 03:53:00,43.4,34.6,30.02,NE,44,0.0,0.0,71,0.00,,---,0.00,VWS V14.00,2013-02-06 09:53:00,
2013-02-06 03:58:00,43.6,34.8,30.01,NE,44,0.0,0.0,71,0.00,,---,0.00,VWS V14.00,2013-02-06 09:58:00,
2013-02-06 04:03:00,43.7,34.9,30.01,NE,44,0.0,0.0,71,0.00,,---,0.00,VWS V14.00,2013-02-06 10:03:00,
2013-02-06 04:08:00,43.8,35.0,30.01,NE,44,0.0,0.0,71,0.00,,---,0.00,VWS V14.00,2013-02-06 10:08:00,
2013-02-06 04:14:00,43.9,34.8,30.01,NE,44,0.0,0.0,70,0.00,,---,0.00,VWS V14.00,2013-02-06 10:14:00,
2013-02-06 04:19:00,43.8,34.7,30.01,NE,44,0.0,0.0,70,0.00,,---,0.00,VWS V14.00,2013-02-06 10:19:00,
2013-02-06 04:24:00,43.7,34.6,30.01,NE,44,0.0,0.0,70,0.00,,---,0.00,VWS V14.00,2013-02-06 10:24:00,
2013-02-06 04:29:00,43.7,34.9,30.02,NE,44,0.0,0.0,71,0.00,,---,0.00,VWS V14.00,2013-02-06 10:29:00,
2013-02-06 04:35:00,43.5,34.7,30.02,NE,44,0.0,0.0,71,0.00,,---,0.00,VWS V14.00,2013-02-06 10:35:00,
2013-02-06 04:40:00,43.3,34.5,30.02,NE,44,0.0,0.0,71,0.00,,---,0.00,VWS V14.00,2013-02-06 10:40:00,
2013-02-06 04:45:00,43.2,34.8,30.02,NE,44,0.0,0.0,72,0.00,,---,0.00,VWS V14.00,2013-02-06 10:45:00,
2013-02-06 04:50:00,43.1,34.7,30.02,NE,44,0.0,0.0,72,0.00,,---,0.00,VWS V14.00,2013-02-06 10:50:00,
2013-02-06 04:56:00,42.9,34.5,30.02,NE,44,0.0,0.0,72,0.00,,---,0.00,VWS V14.00,2013-02-06 10:56:00,
2013-02-06 05:01:00,42.9,34.5,30.02,NE,44,0.0,0.0,72,0.00,,---,0.00,VWS V14.00,2013-02-06 11:01:00,
2013-02-06 05:06:00,42.8,34.4,30.02,NE,44,0.0,0.0,72,0.00,,---,0.00,VWS V14.00,2013-02-06 11:06:00,
2013-02-06 05:12:00,42.8,34.4,30.03,NE,44,0.0,0.0,72,0.00,,---,0.00,VWS V14.00,2013-02-06 11:12:00,
2013-02-06 05:17:00,42.7,34.3,30.03,NE,44,0.0,0.0,72,0.00,,---,0.00,VWS V14.00,2013-02-06 11:17:00,
2013-02-06 05:23:00,42.4,34.0,30.03,NE,44,0.0,0.0,72,0.00,,---,0.00,VWS V14.00,2013-02-06 11:23:00,
2013-02-06 05:29:00,41.8,33.8,30.02,NE,44,0.0,0.0,73,0.00,,---,0.00,VWS V14.00,2013-02-06 11:29:00,
2013-02-06 05:34:00,41.6,33.9,30.02,NE,44,0.0,0.0,74,0.00,,---,0.00,VWS V14.00,2013-02-06 11:34:00,
2013-02-06 05:39:00,41.5,33.8,30.02,NE,44,0.0,0.0,74,0.00,,---,0.00,VWS V14.00,2013-02-06 11:39:00,
2013-02-06 05:44:00,41.6,34.3,30.02,NE,44,0.0,0.0,75,0.00,,---,0.00,VWS V14.00,2013-02-06 11:44:00,
2013-02-06 05:49:00,41.8,34.5,30.02,NE,44,0.0,0.0,75,0.00,,---,0.00,VWS V14.00,2013-02-06 11:49:00,
2013-02-06 05:55:00,41.9,34.6,30.02,NE,44,0.0,0.0,75,0.00,,---,0.00,VWS V14.00,2013-02-06 11:55:00,
2013-02-06 06:00:00,41.7,34.0,30.02,NE,44,0.0,0.0,74,0.00,,---,0.00,VWS V14.00,2013-02-06 12:00:00,
2013-02-06 06:06:00,41.4,34.1,30.02,NE,44,0.0,0.0,75,0.00,,---,0.00,VWS V14.00,2013-02-06 12:06:00,
2013-02-06 06:11:00,41.2,34.2,30.03,NE,44,0.0,0.0,76,0.00,,---,0.00,VWS V14.00,2013-02-06 12:11:00,
2013-02-06 06:16:00,41.1,34.1,30.03,NE,44,0.0,0.0,76,0.00,,---,0.00,VWS V14.00,2013-02-06 12:16:00,
2013-02-06 06:22:00,41.1,34.5,30.03,NE,44,0.0,0.0,77,0.00,,---,0.00,VWS V14.00,2013-02-06 12:22:00,
2013-02-06 06:28:00,41.2,34.5,30.03,NE,44,0.0,0.0,77,0.00,,---,0.00,VWS V14.00,2013-02-06 12:28:00,
2013-02-06 06:33:00,41.4,34.7,30.03,NE,44,0.0,0.0,77,0.00,,---,0.00,VWS V14.00,2013-02-06 12:33:00,
2013-02-06 06:38:00,41.8,35.1,30.03,NE,44,0.0,0.0,77,0.00,,---,0.00,VWS V14.00,2013-02-06 12:38:00,
2013-02-06 06:44:00,42.3,35.3,30.03,NE,44,0.0,0.0,76,0.00,,---,0.00,VWS V14.00,2013-02-06 12:44:00,
2013-02-06 06:49:00,42.5,35.5,30.03,NE,44,0.0,0.0,76,0.00,,---,0.00,VWS V14.00,2013-02-06 12:49:00,
2013-02-06 06:54:00,42.7,35.3,30.03,NE,44,0.0,0.0,75,0.00,,---,0.00,VWS V14.00,2013-02-06 12:54:00,
2013-02-06 06:59:00,42.8,35.4,30.03,NE,44,0.0,0.0,75,0.00,,---,0.00,VWS V14.00,2013-02-06 12:59:00,
2013-02-06 07:05:00,42.9,35.5,30.03,NE,44,0.0,0.0,75,0.00,,---,0.00,VWS V14.00,2013-02-06 13:05:00,
2013-02-06 07:11:00,43.1,35.7,30.03,NE,44,0.0,0.0,75,0.00,,---,0.00,VWS V14.00,2013-02-06 13:11:00,
2013-02-06 07:16:00,42.9,35.2,30.03,NE,44,0.0,0.0,74,0.00,,---,0.00,VWS V14.00,2013-02-06 13:16:00,
2013-02-06 07:22:00,42.7,35.3,30.03,NE,44,0.0,0.0,75,0.00,,---,0.00,VWS V14.00,2013-02-06 13:22:00,
2013-02-06 07:28:00,42.6,35.6,30.03,NE,44,0.0,0.0,76,0.00,,---,0.00,VWS V14.00,2013-02-06 13:28:00,
2013-02-06 07:33:00,42.7,36.0,30.03,NE,44,0.0,0.0,77,0.00,,---,0.00,VWS V14.00,2013-02-06 13:33:00,
2013-02-06 07:39:00,42.9,36.2,30.03,NE,44,0.0,0.0,77,0.00,,---,0.00,VWS V14.00,2013-02-06 13:39:00,
2013-02-06 07:44:00,43.1,36.7,30.04,NE,51,0.0,0.0,78,0.00,,---,0.00,VWS V14.00,2013-02-06 13:44:00,
2013-02-06 07:49:00,43.3,36.9,30.04,NE,51,0.0,0.0,78,0.00,,---,0.00,VWS V14.00,2013-02-06 13:49:00,
2013-02-06 07:55:00,43.6,37.5,30.04,NE,51,0.0,0.0,79,0.00,,---,0.00,VWS V14.00,2013-02-06 13:55:00,
2013-02-06 08:00:00,43.9,38.1,30.04,NE,51,0.0,0.0,80,0.00,,---,0.00,VWS V14.00,2013-02-06 14:00:00,
2013-02-06 08:05:00,44.3,38.5,30.04,NE,52,0.0,0.0,80,0.00,,---,0.00,VWS V14.00,2013-02-06 14:05:00,
2013-02-06 08:10:00,44.6,38.8,30.04,NE,52,0.0,0.0,80,0.00,,---,0.00,VWS V14.00,2013-02-06 14:10:00,
2013-02-06 08:15:00,44.9,39.1,30.04,NE,52,0.0,0.0,80,0.00,,---,0.00,VWS V14.00,2013-02-06 14:15:00,
2013-02-06 08:21:00,45.5,40.0,30.04,East,85,0.0,0.0,81,0.00,,---,0.00,VWS V14.00,2013-02-06 14:21:00,
2013-02-06 08:26:00,45.9,40.4,30.05,East,85,0.0,0.0,81,0.00,,---,0.00,VWS V14.00,2013-02-06 14:26:00,
2013-02-06 08:31:00,46.3,40.5,30.05,ESE,115,0.0,0.0,80,0.00,,---,0.00,VWS V14.00,2013-02-06 14:31:00,
2013-02-06 08:36:00,46.9,41.4,30.05,ESE,115,0.0,0.0,81,0.00,,---,0.00,VWS V14.00,2013-02-06 14:36:00,
2013-02-06 08:41:00,47.6,41.8,30.05,ESE,115,0.0,0.0,80,0.00,,---,0.00,VWS V14.00,2013-02-06 14:41:00,
2013-02-06 08:46:00,48.1,42.2,30.05,SE,124,2.0,3.0,80,0.00,,---,0.00,VWS V14.00,2013-02-06 14:46:00,
2013-02-06 08:51:00,48.7,42.8,30.05,SE,124,0.0,0.0,80,0.00,,---,0.00,VWS V14.00,2013-02-06 14:51:00,
2013-02-06 08:56:00,49.3,43.1,30.04,SE,124,0.0,0.0,79,0.00,,---,0.00,VWS V14.00,2013-02-06 14:56:00,
2013-02-06 09:01:00,50.2,43.6,30.04,SE,129,0.0,0.0,78,0.00,,---,0.00,VWS V14.00,2013-02-06 15:01:00,
2013-02-06 09:06:00,51.0,43.7,30.04,SE,138,3.0,6.0,76,0.00,,---,0.00,VWS V14.00,2013-02-06 15:06:00,
2013-02-06 09:11:00,51.6,44.0,30.05,East,94,0.0,6.0,75,0.00,,---,0.00,VWS V14.00,2013-02-06 15:11:00,
2013-02-06 09:16:00,51.7,43.7,30.05,SE,141,0.0,2.0,74,0.00,,---,0.00,VWS V14.00,2013-02-06 15:16:00,
2013-02-06 09:21:00,51.9,43.5,30.05,SE,145,3.0,10.0,73,0.00,,---,0.00,VWS V14.00,2013-02-06 15:21:00,
2013-02-06 09:26:00,52.3,43.9,30.04,SE,129,0.0,6.0,73,0.00,,---,0.00,VWS V14.00,2013-02-06 15:26:00,
2013-02-06 09:31:00,53.4,43.9,30.04,SE,134,6.0,10.0,70,0.00,,---,0.00,VWS V14.00,2013-02-06 15:31:00,
2013-02-06 09:36:00,53.6,43.7,30.04,SE,137,3.0,9.0,69,0.00,,---,0.00,VWS V14.00,2013-02-06 15:36:00,
2013-02-06 09:42:00,53.6,43.7,30.05,SE,136,0.0,7.0,69,0.00,,---,0.00,VWS V14.00,2013-02-06 15:42:00,
2013-02-06 09:48:00,54.0,43.7,30.05,SE,135,6.0,9.0,68,0.00,,---,0.00,VWS V14.00,2013-02-06 15:48:00,
2013-02-06 09:53:00,54.5,43.8,30.05,SSE,150,7.0,7.0,67,0.00,,---,0.00,VWS V14.00,2013-02-06 15:53:00,
2013-02-06 09:58:00,55.4,44.2,30.04,SE,130,0.0,9.0,66,0.00,,---,0.00,VWS V14.00,2013-02-06 15:58:00,
2013-02-06 10:03:00,56.1,43.7,30.04,SSE,158,0.0,9.0,63,0.00,,---,0.00,VWS V14.00,2013-02-06 16:03:00,
2013-02-06 10:08:00,56.7,44.3,30.04,SE,130,2.0,5.0,63,0.00,,---,0.00,VWS V14.00,2013-02-06 16:08:00,
2013-02-06 10:14:00,56.2,43.8,30.04,SE,136,1.0,14.0,63,0.00,,---,0.00,VWS V14.00,2013-02-06 16:14:00,
2013-02-06 10:20:00,56.9,44.0,30.04,SSE,160,3.0,6.0,62,0.00,,---,0.00,VWS V14.00,2013-02-06 16:20:00,
2013-02-06 10:25:00,57.2,43.9,30.04,SSE,148,6.0,7.0,61,0.00,,---,0.00,VWS V14.00,2013-02-06 16:25:00,
2013-02-06 10:30:00,57.3,44.0,30.04,SSE,148,9.0,14.0,61,0.00,,---,0.00,VWS V14.00,2013-02-06 16:30:00,
2013-02-06 10:36:00,57.8,44.5,30.04,SSE,155,3.0,17.0,61,0.00,,---,0.00,VWS V14.00,2013-02-06 16:36:00,
2013-02-06 10:41:00,58.2,44.4,30.04,SSE,148,7.0,7.0,60,0.00,,---,0.00,VWS V14.00,2013-02-06 16:41:00,
2013-02-06 10:46:00,58.0,44.2,30.04,SE,130,4.0,8.0,60,0.00,,---,0.00,VWS V14.00,2013-02-06 16:46:00,
2013-02-06 10:52:00,57.8,44.0,30.04,SSE,155,7.0,12.0,60,0.00,,---,0.00,VWS V14.00,2013-02-06 16:52:00,
2013-02-06 10:58:00,57.7,44.4,30.03,SE,140,9.0,14.0,61,0.00,,---,0.00,VWS V14.00,2013-02-06 16:58:00,
2013-02-06 11:03:00,57.5,44.2,30.03,SE,133,10.0,12.0,61,0.00,,---,0.00,VWS V14.00,2013-02-06 17:03:00,
2013-02-06 11:08:00,57.1,43.8,30.03,East,94,6.0,9.0,61,0.00,,---,0.00,VWS V14.00,2013-02-06 17:08:00,
2013-02-06 11:13:00,56.8,43.9,30.03,SE,134,4.0,4.0,62,0.00,,---,0.00,VWS V14.00,2013-02-06 17:13:00,
2013-02-06 11:18:00,56.7,43.4,30.03,SSE,148,6.0,14.0,61,0.00,,---,0.00,VWS V14.00,2013-02-06 17:18:00,
2013-02-06 11:24:00,56.8,43.5,30.03,ESE,120,0.0,8.0,61,0.00,,---,0.00,VWS V14.00,2013-02-06 17:24:00,
2013-02-06 11:29:00,56.8,43.5,30.02,SE,134,6.0,11.0,61,0.00,,---,0.00,VWS V14.00,2013-02-06 17:29:00,
2013-02-06 11:35:00,57.0,43.7,30.02,SE,126,2.0,2.0,61,0.00,,---,0.00,VWS V14.00,2013-02-06 17:35:00,
2013-02-06 11:41:00,57.5,43.7,30.01,SE,139,7.0,9.0,60,0.00,,---,0.00,VWS V14.00,2013-02-06 17:41:00,
2013-02-06 11:47:00,57.5,43.3,30.01,ESE,119,0.0,0.0,59,0.00,,---,0.00,VWS V14.00,2013-02-06 17:47:00,
2013-02-06 11:52:00,57.8,43.6,30.01,SE,126,0.0,3.0,59,0.00,,---,0.00,VWS V14.00,2013-02-06 17:52:00,
2013-02-06 11:57:00,58.3,43.6,30.00,SE,129,0.0,2.0,58,0.00,,---,0.00,VWS V14.00,2013-02-06 17:57:00,
2013-02-06 12:02:00,59.1,43.4,30.00,SE,142,1.0,7.0,56,0.00,,---,0.00,VWS V14.00,2013-02-06 18:02:00,
2013-02-06 12:08:00,59.4,44.2,30.00,SE,143,0.0,10.0,57,0.00,,---,0.00,VWS V14.00,2013-02-06 18:08:00,
2013-02-06 12:13:00,59.6,44.8,29.99,SE,143,0.0,8.0,58,0.00,,---,0.00,VWS V14.00,2013-02-06 18:13:00,
2013-02-06 12:18:00,60.6,45.3,29.99,SSE,163,5.0,16.0,57,0.00,,---,0.00,VWS V14.00,2013-02-06 18:18:00,
2013-02-06 12:24:00,61.6,45.8,29.99,SE,132,1.0,11.0,56,0.00,,---,0.00,VWS V14.00,2013-02-06 18:24:00,
2013-02-06 12:29:00,62.0,45.7,29.99,SE,142,4.0,14.0,55,0.00,,---,0.00,VWS V14.00,2013-02-06 18:29:00,
2013-02-06 12:34:00,61.6,45.3,29.99,SSE,155,7.0,19.0,55,0.00,,---,0.00,VWS V14.00,2013-02-06 18:34:00,
2013-02-06 12:40:00,62.5,46.6,29.98,ESE,105,0.0,13.0,56,0.00,,---,0.00,VWS V14.00,2013-02-06 18:40:00,
2013-02-06 12:45:00,63.3,46.9,29.98,ESE,113,11.0,14.0,55,0.00,,---,0.00,VWS V14.00,2013-02-06 18:45:00,
2013-02-06 12:50:00,64.1,47.6,29.98,South,172,3.0,11.0,55,0.00,,---,0.00,VWS V14.00,2013-02-06 18:50:00,
2013-02-06 12:55:00,63.8,48.3,29.96,SSE,160,0.0,15.0,57,0.00,,---,0.00,VWS V14.00,2013-02-06 18:55:00,
2013-02-06 13:00:00,63.9,48.4,29.96,South,175,13.0,15.0,57,0.00,,---,0.00,VWS V14.00,2013-02-06 19:00:00,
2013-02-06 13:06:00,64.0,48.5,29.96,SE,141,0.0,15.0,57,0.00,,---,0.00,VWS V14.00,2013-02-06 19:06:00,
2013-02-06 13:11:00,63.9,48.4,29.96,SE,141,5.0,14.0,57,0.00,,---,0.00,VWS V14.00,2013-02-06 19:11:00,
2013-02-06 13:16:00,63.6,48.6,29.96,SE,145,5.0,14.0,58,0.00,,---,0.00,VWS V14.00,2013-02-06 19:16:00,
2013-02-06 13:21:00,63.8,48.8,29.96,SSE,152,3.0,13.0,58,0.00,,---,0.00,VWS V14.00,2013-02-06 19:21:00,
2013-02-06 13:27:00,63.7,49.1,29.95,SSE,152,7.0,16.0,59,0.00,,---,0.00,VWS V14.00,2013-02-06 19:27:00,
2013-02-06 13:32:00,64.3,49.7,29.95,SE,139,0.0,10.0,59,0.00,,---,0.00,VWS V14.00,2013-02-06 19:32:00,
2013-02-06 13:37:00,64.1,49.5,29.95,SE,141,1.0,17.0,59,0.00,,---,0.00,VWS V14.00,2013-02-06 19:37:00,
2013-02-06 13:42:00,63.2,49.5,29.94,SSE,153,0.0,15.0,61,0.00,,---,0.00,VWS V14.00,2013-02-06 19:42:00,
2013-02-06 13:47:00,62.9,49.7,29.94,SSE,166,9.0,16.0,62,0.00,,---,0.00,VWS V14.00,2013-02-06 19:47:00,
2013-02-06 13:53:00,63.2,50.0,29.94,South,179,3.0,13.0,62,0.00,,---,0.00,VWS V14.00,2013-02-06 19:53:00,
2013-02-06 13:58:00,63.4,50.6,29.94,SE,138,7.0,11.0,63,0.00,,---,0.00,VWS V14.00,2013-02-06 19:58:00,
2013-02-06 14:03:00,63.4,50.2,29.94,SE,131,3.0,14.0,62,0.00,,---,0.00,VWS V14.00,2013-02-06 20:03:00,
2013-02-06 14:09:00,64.2,50.9,29.94,SSE,148,10.0,10.0,62,0.00,,---,0.00,VWS V14.00,2013-02-06 20:09:00,
2013-02-06 14:14:00,63.7,50.5,29.93,SE,139,1.0,16.0,62,0.00,,---,0.00,VWS V14.00,2013-02-06 20:14:00,
2013-02-06 14:19:00,63.6,50.4,29.93,SSE,148,0.0,18.0,62,0.00,,---,0.00,VWS V14.00,2013-02-06 20:19:00,
2013-02-06 14:25:00,63.6,50.4,29.92,SE,134,0.0,10.0,62,0.00,,---,0.00,VWS V14.00,2013-02-06 20:25:00,
2013-02-06 14:30:00,63.6,50.4,29.92,SE,141,3.0,6.0,62,0.00,,---,0.00,VWS V14.00,2013-02-06 20:30:00,
2013-02-06 14:35:00,63.2,50.4,29.92,ESE,115,10.0,22.0,63,0.00,,---,0.00,VWS V14.00,2013-02-06 20:35:00,
2013-02-06 14:40:00,62.6,50.3,29.92,South,169,11.0,20.0,64,0.00,,---,0.00,VWS V14.00,2013-02-06 20:40:00,
2013-02-06 14:45:00,62.3,50.4,29.92,SSE,155,4.0,13.0,65,0.00,,---,0.00,VWS V14.00,2013-02-06 20:45:00,
2013-02-06 14:50:00,62.7,50.8,29.92,SE,141,12.0,12.0,65,0.00,,---,0.00,VWS V14.00,2013-02-06 20:50:00,
2013-02-06 14:55:00,62.6,50.7,29.91,SE,137,1.0,16.0,65,0.00,,---,0.00,VWS V14.00,2013-02-06 20:55:00,
2013-02-06 15:00:00,62.4,50.5,29.91,SE,134,7.0,13.0,65,0.00,,---,0.00,VWS V14.00,2013-02-06 21:00:00,
2013-02-06 15:05:00,62.4,50.9,29.91,SE,136,0.0,9.0,66,0.00,,---,0.00,VWS V14.00,2013-02-06 21:05:00,
2013-02-06 15:11:00,62.8,51.3,29.91,SSE,155,4.0,13.0,66,0.00,,---,0.00,VWS V14.00,2013-02-06 21:11:00,
2013-02-06 15:16:00,63.0,51.9,29.91,ESE,122,12.0,20.0,67,0.00,,---,0.00,VWS V14.00,2013-02-06 21:16:00,
2013-02-06 15:22:00,63.2,52.1,29.91,SSE,163,10.0,22.0,67,0.00,,---,0.00,VWS V14.00,2013-02-06 21:22:00,
2013-02-06 15:27:00,63.0,51.9,29.91,SE,146,3.0,17.0,67,0.00,,---,0.00,VWS V14.00,2013-02-06 21:27:00,
2013-02-06 15:33:00,62.7,51.2,29.91,ESE,113,10.0,10.0,66,0.00,,---,0.00,VWS V14.00,2013-02-06 21:33:00,
2013-02-06 15:38:00,62.7,51.2,29.91,SE,146,2.0,16.0,66,0.00,,---,0.00,VWS V14.00,2013-02-06 21:38:00,
2013-02-06 15:44:00,62.6,50.7,29.90,ESE,110,15.0,19.0,65,0.00,,---,0.00,VWS V14.00,2013-02-06 21:44:00,
2013-02-06 15:49:00,62.6,50.7,29.90,SE,139,6.0,15.0,65,0.00,,---,0.00,VWS V14.00,2013-02-06 21:49:00,
2013-02-06 15:54:00,62.7,50.8,29.90,East,98,5.0,12.0,65,0.00,,---,0.00,VWS V14.00,2013-02-06 21:54:00,
2013-02-06 15:59:00,62.9,50.5,29.90,South,179,7.0,14.0,64,0.00,,---,0.00,VWS V14.00,2013-02-06 21:59:00,
2013-02-06 16:04:00,62.9,50.1,29.90,SE,141,4.0,23.0,63,0.00,,---,0.00,VWS V14.00,2013-02-06 22:04:00,
2013-02-06 16:10:00,63.1,49.5,29.90,SE,145,4.0,9.0,61,0.00,,---,0.00,VWS V14.00,2013-02-06 22:10:00,
2013-02-06 16:15:00,63.1,49.0,29.90,SE,126,2.0,13.0,60,0.00,,---,0.00,VWS V14.00,2013-02-06 22:15:00,
2013-02-06 16:21:00,63.1,48.6,29.90,ESE,115,1.0,1.0,59,0.00,,---,0.00,VWS V14.00,2013-02-06 22:21:00,
2013-02-06 16:26:00,63.1,48.1,29.90,SE,141,11.0,17.0,58,0.00,,---,0.00,VWS V14.00,2013-02-06 22:26:00,
2013-02-06 16:32:00,63.4,47.5,29.90,ESE,120,15.0,15.0,56,0.00,,---,0.00,VWS V14.00,2013-02-06 22:32:00,
2013-02-06 16:37:00,63.4,47.5,29.90,SE,144,7.0,11.0,56,0.00,,---,0.00,VWS V14.00,2013-02-06 22:37:00,
2013-02-06 16:42:00,63.3,46.9,29.90,SSE,160,0.0,10.0,55,0.00,,---,0.00,VWS V14.00,2013-02-06 22:42:00,
2013-02-06 16:47:00,63.3,47.3,29.90,SE,129,2.0,10.0,56,0.00,,---,0.00,VWS V14.00,2013-02-06 22:47:00,
2013-02-06 16:52:00,63.3,46.9,29.90,WSW,237,7.0,18.0,55,0.00,,---,0.00,VWS V14.00,2013-02-06 22:52:00,
2013-02-06 16:57:00,63.3,46.9,29.90,SE,134,4.0,5.0,55,0.00,,---,0.00,VWS V14.00,2013-02-06 22:57:00,
2013-02-06 17:03:00,63.3,46.4,29.90,SE,139,2.0,12.0,54,0.00,,---,0.00,VWS V14.00,2013-02-06 23:03:00,
2013-02-06 17:08:00,63.4,46.5,29.90,SE,131,12.0,12.0,54,0.00,,---,0.00,VWS V14.00,2013-02-06 23:08:00,
2013-02-06 17:13:00,63.4,46.0,29.89,SE,135,9.0,11.0,53,0.00,,---,0.00,VWS V14.00,2013-02-06 23:13:00,
2013-02-06 17:18:00,63.4,45.5,29.89,SE,141,10.0,13.0,52,0.00,,---,0.00,VWS V14.00,2013-02-06 23:18:00,
2013-02-06 17:24:00,63.1,44.7,29.89,ESE,117,10.0,13.0,51,0.00,,---,0.00,VWS V14.00,2013-02-06 23:24:00,
2013-02-06 17:29:00,62.9,44.5,29.89,SE,124,11.0,18.0,51,0.00,,---,0.00,VWS V14.00,2013-02-06 23:29:00,
2013-02-06 17:34:00,62.7,44.8,29.89,SSE,156,13.0,16.0,52,0.00,,---,0.00,VWS V14.00,2013-02-06 23:34:00,
2013-02-06 17:39:00,62.5,44.7,29.89,SE,144,0.0,13.0,52,0.00,,---,0.00,VWS V14.00,2013-02-06 23:39:00,
2013-02-06 17:44:00,62.3,44.5,29.89,SSE,148,2.0,11.0,52,0.00,,---,0.00,VWS V14.00,2013-02-06 23:44:00,
2013-02-06 17:49:00,62.2,44.4,29.89,SE,137,11.0,12.0,52,0.00,,---,0.00,VWS V14.00,2013-02-06 23:49:00,
2013-02-06 17:54:00,62.1,43.8,29.89,SE,131,11.0,19.0,51,0.00,,---,0.00,VWS V14.00,2013-02-06 23:54:00,
2013-02-06 17:59:00,61.9,44.1,29.88,SE,134,14.0,14.0,52,0.00,,---,0.00,VWS V14.00,2013-02-06 23:59:00,
2013-02-06 18:04:00,61.8,44.0,29.88,SE,134,3.0,13.0,52,0.00,,---,0.00,VWS V14.00,2013-02-07 00:04:00,
2013-02-06 18:10:00,61.5,43.7,29.89,SE,143,0.0,12.0,52,0.00,,---,0.00,VWS V14.00,2013-02-07 00:10:00,
2013-02-06 18:15:00,61.3,44.0,29.89,SE,146,5.0,6.0,53,0.00,,---,0.00,VWS V14.00,2013-02-07 00:15:00,
2013-02-06 18:20:00,61.0,43.8,29.89,SE,137,3.0,3.0,53,0.00,,---,0.00,VWS V14.00,2013-02-07 00:20:00,
2013-02-06 18:25:00,60.8,43.6,29.89,SSE,167,3.0,4.0,53,0.00,,---,0.00,VWS V14.00,2013-02-07 00:25:00,
2013-02-06 18:31:00,60.7,43.0,29.89,SE,127,0.0,12.0,52,0.00,,---,0.00,VWS V14.00,2013-02-07 00:31:00,
2013-02-06 18:36:00,60.5,42.8,29.89,SE,129,10.0,10.0,52,0.00,,---,0.00,VWS V14.00,2013-02-07 00:36:00,
2013-02-06 18:42:00,60.3,42.6,29.89,SE,128,4.0,12.0,52,0.00,,---,0.00,VWS V14.00,2013-02-07 00:42:00,
2013-02-06 18:47:00,60.1,42.4,29.89,SSE,148,0.0,9.0,52,0.00,,---,0.00,VWS V14.00,2013-02-07 00:47:00,
2013-02-06 18:52:00,59.9,42.7,29.89,SE,134,2.0,10.0,53,0.00,,---,0.00,VWS V14.00,2013-02-07 00:52:00,
2013-02-06 18:57:00,59.6,43.0,29.90,SE,129,8.0,8.0,54,0.00,,---,0.00,VWS V14.00,2013-02-07 00:57:00,
2013-02-06 19:03:00,59.4,42.8,29.90,SSE,148,0.0,6.0,54,0.00,,---,0.00,VWS V14.00,2013-02-07 01:03:00,
2013-02-06 19:09:00,59.1,43.0,29.90,ESE,120,0.0,0.0,55,0.00,,---,0.00,VWS V14.00,2013-02-07 01:09:00,
2013-02-06 19:14:00,58.9,42.8,29.90,SE,136,0.0,1.0,55,0.00,,---,0.00,VWS V14.00,2013-02-07 01:14:00,
2013-02-06 19:19:00,58.6,42.5,29.90,SE,141,0.0,5.0,55,0.00,,---,0.00,VWS V14.00,2013-02-07 01:19:00,
2013-02-06 19:25:00,58.6,42.5,29.90,SE,131,0.0,0.0,55,0.00,,---,0.00,VWS V14.00,2013-02-07 01:25:00,
2013-02-06 19:30:00,58.6,42.0,29.90,SE,137,0.0,10.0,54,0.00,,---,0.00,VWS V14.00,2013-02-07 01:30:00,
2013-02-06 19:35:00,58.4,41.8,29.90,SE,141,10.0,14.0,54,0.00,,---,0.00,VWS V14.00,2013-02-07 01:35:00,
2013-02-06 19:40:00,58.2,42.1,29.90,SE,139,2.0,6.0,55,0.00,,---,0.00,VWS V14.00,2013-02-07 01:40:00,
2013-02-06 19:45:00,58.1,42.0,29.90,SE,134,15.0,17.0,55,0.00,,---,0.00,VWS V14.00,2013-02-07 01:45:00,
2013-02-06 19:50:00,58.0,41.9,29.90,SE,131,1.0,5.0,55,0.00,,---,0.00,VWS V14.00,2013-02-07 01:50:00,
2013-02-06 19:55:00,57.9,41.8,29.90,SE,131,5.0,11.0,55,0.00,,---,0.00,VWS V14.00,2013-02-07 01:55:00,
2013-02-06 20:00:00,57.8,41.8,29.90,SSE,150,9.0,16.0,55,0.00,,---,0.00,VWS V14.00,2013-02-07 02:00:00,
2013-02-06 20:05:00,57.7,41.7,29.90,SSE,150,1.0,12.0,55,0.00,,---,0.00,VWS V14.00,2013-02-07 02:05:00,
2013-02-06 20:10:00,57.5,41.5,29.90,SE,143,5.0,11.0,55,0.00,,---,0.00,VWS V14.00,2013-02-07 02:10:00,
2013-02-06 20:16:00,57.3,41.3,29.90,SE,131,1.0,7.0,55,0.00,,---,0.00,VWS V14.00,2013-02-07 02:16:00,
2013-02-06 20:21:00,57.3,41.3,29.90,ESE,121,0.0,6.0,55,0.00,,---,0.00,VWS V14.00,2013-02-07 02:21:00,
2013-02-06 20:26:00,57.2,41.2,29.90,SE,144,4.0,12.0,55,0.00,,---,0.00,VWS V14.00,2013-02-07 02:26:00,
2013-02-06 20:31:00,57.1,41.1,29.90,SE,131,3.0,3.0,55,0.00,,---,0.00,VWS V14.00,2013-02-07 02:31:00,
2013-02-06 20:37:00,56.9,41.4,29.90,SE,127,0.0,7.0,56,0.00,,---,0.00,VWS V14.00,2013-02-07 02:37:00,
2013-02-06 20:42:00,56.7,41.2,29.91,SSE,160,0.0,1.0,56,0.00,,---,0.00,VWS V14.00,2013-02-07 02:42:00,
2013-02-06 20:48:00,56.6,40.6,29.91,SSE,148,0.0,11.0,55,0.00,,---,0.00,VWS V14.00,2013-02-07 02:48:00,
2013-02-06 20:53:00,56.4,40.5,29.91,SSE,151,0.0,9.0,55,0.00,,---,0.00,VWS V14.00,2013-02-07 02:53:00,
2013-02-06 20:58:00,56.2,40.3,29.91,SE,125,2.0,6.0,55,0.00,,---,0.00,VWS V14.00,2013-02-07 02:58:00,
2013-02-06 21:03:00,55.9,40.0,29.91,SE,126,1.0,3.0,55,0.00,,---,0.00,VWS V14.00,2013-02-07 03:03:00,
2013-02-06 21:08:00,55.6,40.2,29.91,SSE,156,0.0,6.0,56,0.00,,---,0.00,VWS V14.00,2013-02-07 03:08:00,
2013-02-06 21:13:00,55.4,40.4,29.91,SE,143,1.0,7.0,57,0.00,,---,0.00,VWS V14.00,2013-02-07 03:13:00,
2013-02-06 21:18:00,55.3,40.8,29.91,SSE,155,0.0,15.0,58,0.00,,---,0.00,VWS V14.00,2013-02-07 03:18:00,
2013-02-06 21:23:00,55.3,41.2,29.91,SE,141,0.0,5.0,59,0.00,,---,0.00,VWS V14.00,2013-02-07 03:23:00,
2013-02-06 21:28:00,55.2,41.6,29.91,SE,129,8.0,9.0,60,0.00,,---,0.00,VWS V14.00,2013-02-07 03:28:00,
2013-02-06 21:33:00,55.1,41.9,29.91,South,175,0.0,11.0,61,0.00,,---,0.00,VWS V14.00,2013-02-07 03:33:00,
2013-02-06 21:39:00,55.1,41.9,29.91,SE,142,8.0,11.0,61,0.00,,---,0.00,VWS V14.00,2013-02-07 03:39:00,
2013-02-06 21:45:00,55.0,42.2,29.91,ESE,115,4.0,4.0,62,0.00,,---,0.00,VWS V14.00,2013-02-07 03:45:00,
2013-02-06 21:51:00,54.9,42.1,29.91,SSE,148,0.0,8.0,62,0.00,,---,0.00,VWS V14.00,2013-02-07 03:51:00,
2013-02-06 21:56:00,54.9,42.6,29.91,SE,127,9.0,13.0,63,0.00,,---,0.00,VWS V14.00,2013-02-07 03:56:00,
2013-02-06 22:01:00,54.8,42.5,29.91,SE,134,0.0,10.0,63,0.00,,---,0.00,VWS V14.00,2013-02-07 04:01:00,
2013-02-06 22:06:00,54.7,42.8,29.91,ESE,122,0.0,15.0,64,0.00,,---,0.00,VWS V14.00,2013-02-07 04:06:00,
2013-02-06 22:11:00,54.6,42.7,29.91,SE,140,11.0,12.0,64,0.00,,---,0.00,VWS V14.00,2013-02-07 04:11:00,
2013-02-06 22:16:00,54.6,43.1,29.91,SE,137,4.0,7.0,65,0.00,,---,0.00,VWS V14.00,2013-02-07 04:16:00,
2013-02-06 22:22:00,54.4,42.9,29.91,SE,129,5.0,12.0,65,0.00,,---,0.00,VWS V14.00,2013-02-07 04:22:00,
2013-02-06 22:27:00,54.3,42.8,29.91,SE,144,1.0,17.0,65,0.00,,---,0.00,VWS V14.00,2013-02-07 04:27:00,
2013-02-06 22:32:00,54.2,43.1,29.91,SE,130,3.0,11.0,66,0.00,,---,0.00,VWS V14.00,2013-02-07 04:32:00,
2013-02-06 22:37:00,54.0,42.9,29.91,SE,135,0.0,11.0,66,0.00,,---,0.00,VWS V14.00,2013-02-07 04:37:00,
2013-02-06 22:42:00,53.9,43.2,29.91,SE,146,12.0,17.0,67,0.00,,---,0.00,VWS V14.00,2013-02-07 04:42:00,
2013-02-06 22:48:00,53.9,43.2,29.91,SSE,150,0.0,12.0,67,0.00,,---,0.00,VWS V14.00,2013-02-07 04:48:00,
2013-02-06 22:50:00,53.6,43.3,29.91,SSE,156,12.0,14.0,68,0.00,,---,0.00,VWS V14.00,2013-02-07 04:50:00,
2013-02-06 22:51:00,53.6,43.7,29.91,SE,138,0.0,15.0,69,0.00,,---,0.00,VWS V14.00,2013-02-07 04:51:00,
2013-02-06 22:52:00,53.6,43.7,29.91,ESE,120,6.0,11.0,69,0.00,,---,0.00,VWS V14.00,2013-02-07 04:52:00,
2013-02-06 22:53:00,53.7,43.4,29.91,SE,127,5.0,12.0,68,0.00,,---,0.00,VWS V14.00,2013-02-07 04:53:00,
2013-02-06 22:54:00,53.5,43.6,29.91,SE,124,0.0,10.0,69,0.00,,---,0.00,VWS V14.00,2013-02-07 04:54:00,
2013-02-06 22:55:00,53.5,43.6,29.91,SE,137,0.0,4.0,69,0.00,,---,0.00,VWS V14.00,2013-02-07 04:55:00,
2013-02-06 22:56:00,53.5,43.6,29.91,SE,129,4.0,7.0,69,0.00,,---,0.00,VWS V14.00,2013-02-07 04:56:00,
2013-02-06 22:57:00,53.5,43.6,29.91,SE,138,14.0,16.0,69,0.00,,---,0.00,VWS V14.00,2013-02-07 04:57:00,
2013-02-06 22:58:00,53.6,43.3,29.91,SE,126,0.0,13.0,68,0.00,,---,0.00,VWS V14.00,2013-02-07 04:58:00,
2013-02-06 22:59:00,53.5,43.6,29.91,South,181,0.0,14.0,69,0.00,,---,0.00,VWS V14.00,2013-02-07 04:59:00,
2013-02-06 23:00:00,53.4,43.5,29.91,ESE,122,6.0,11.0,69,0.00,,---,0.00,VWS V14.00,2013-02-07 05:00:00,
2013-02-06 23:01:00,53.4,43.5,29.91,SE,132,0.0,10.0,69,0.00,,---,0.00,VWS V14.00,2013-02-07 05:01:00,
2013-02-06 23:02:00,53.4,43.9,29.91,SE,133,8.0,17.0,70,0.00,,---,0.00,VWS V14.00,2013-02-07 05:02:00,
2013-02-06 23:03:00,53.4,43.9,29.91,SE,129,7.0,8.0,70,0.00,,---,0.00,VWS V14.00,2013-02-07 05:03:00,
2013-02-06 23:04:00,53.4,43.9,29.91,SE,142,0.0,7.0,70,0.00,,---,0.00,VWS V14.00,2013-02-07 05:04:00,
2013-02-06 23:05:00,53.4,43.9,29.91,SE,146,0.0,0.0,70,0.00,,---,0.00,VWS V14.00,2013-02-07 05:05:00,
2013-02-06 23:06:00,53.4,43.9,29.91,SE,136,0.0,7.0,70,0.00,,---,0.00,VWS V14.00,2013-02-07 05:06:00,
2013-02-06 23:07:00,53.4,43.9,29.91,SE,125,4.0,10.0,70,0.00,,---,0.00,VWS V14.00,2013-02-07 05:07:00,
2013-02-06 23:08:00,53.4,43.9,29.91,SE,131,9.0,9.0,70,0.00,,---,0.00,VWS V14.00,2013-02-07 05:08:00,
2013-02-06 23:09:00,53.4,43.9,29.91,SE,137,2.0,9.0,70,0.00,,---,0.00,VWS V14.00,2013-02-07 05:09:00,
2013-02-06 23:10:00,53.4,43.9,29.91,SSE,162,0.0,2.0,70,0.00,,---,0.00,VWS V14.00,2013-02-07 05:10:00,
2013-02-06 23:11:00,53.4,43.9,29.91,SE,132,4.0,4.0,70,0.00,,---,0.00,VWS V14.00,2013-02-07 05:11:00,
2013-02-06 23:12:00,53.4,43.9,29.91,SE,135,0.0,5.0,70,0.00,,---,0.00,VWS V14.00,2013-02-07 05:12:00,
2013-02-06 23:13:00,53.4,43.9,29.91,SE,127,4.0,4.0,70,0.00,,---,0.00,VWS V14.00,2013-02-07 05:13:00,
2013-02-06 23:14:00,53.4,43.9,29.91,SE,128,0.0,5.0,70,0.00,,---,0.00,VWS V14.00,2013-02-07 05:14:00,
2013-02-06 23:15:00,53.4,43.9,29.91,SE,135,6.0,6.0,70,0.00,,---,0.00,VWS V14.00,2013-02-07 05:15:00,
2013-02-06 23:16:00,53.4,43.9,29.91,SE,139,2.0,11.0,70,0.00,,---,0.00,VWS V14.00,2013-02-07 05:16:00,
2013-02-06 23:17:00,53.4,43.9,29.91,ESE,118,8.0,10.0,70,0.00,,---,0.00,VWS V14.00,2013-02-07 05:17:00,
2013-02-06 23:18:00,53.3,44.2,29.91,SE,125,7.0,8.0,71,0.00,,---,0.00,VWS V14.00,2013-02-07 05:18:00,
2013-02-06 23:19:00,53.3,44.2,29.91,ESE,119,0.0,9.0,71,0.00,,---,0.00,VWS V14.00,2013-02-07 05:19:00,
2013-02-06 23:20:00,53.3,44.2,29.91,South,187,0.0,3.0,71,0.00,,---,0.00,VWS V14.00,2013-02-07 05:20:00,
2013-02-06 23:21:00,53.3,44.2,29.91,SE,129,1.0,7.0,71,0.00,,---,0.00,VWS V14.00,2013-02-07 05:21:00,
2013-02-06 23:22:00,53.3,44.2,29.91,SE,129,0.0,4.0,71,0.00,,---,0.00,VWS V14.00,2013-02-07 05:22:00,
2013-02-06 23:23:00,53.3,44.2,29.91,SE,125,1.0,5.0,71,0.00,,---,0.00,VWS V14.00,2013-02-07 05:23:00,
2013-02-06 23:24:00,53.3,44.2,29.91,SE,124,3.0,7.0,71,0.00,,---,0.00,VWS V14.00,2013-02-07 05:24:00,
2013-02-06 23:25:00,53.3,44.2,29.91,SE,129,0.0,3.0,71,0.00,,---,0.00,VWS V14.00,2013-02-07 05:25:00,
2013-02-06 23:26:00,53.3,44.2,29.91,SE,143,0.0,10.0,71,0.00,,---,0.00,VWS V14.00,2013-02-07 05:26:00,
2013-02-06 23:27:00,53.3,44.2,29.91,SE,129,0.0,6.0,71,0.00,,---,0.00,VWS V14.00,2013-02-07 05:27:00,
2013-02-06 23:28:00,53.3,44.2,29.91,SE,131,0.0,7.0,71,0.00,,---,0.00,VWS V14.00,2013-02-07 05:28:00,
2013-02-06 23:29:00,53.3,44.2,29.91,East,99,1.0,5.0,71,0.00,,---,0.00,VWS V14.00,2013-02-07 05:29:00,
2013-02-06 23:30:00,53.3,44.2,29.91,SE,143,2.0,2.0,71,0.00,,---,0.00,VWS V14.00,2013-02-07 05:30:00,
2013-02-06 23:31:00,53.3,44.2,29.91,SE,128,3.0,10.0,71,0.00,,---,0.00,VWS V14.00,2013-02-07 05:31:00,
2013-02-06 23:32:00,53.3,44.5,29.91,SSE,148,0.0,5.0,72,0.00,,---,0.00,VWS V14.00,2013-02-07 05:32:00,
2013-02-06 23:33:00,53.3,44.5,29.91,SE,134,10.0,12.0,72,0.00,,---,0.00,VWS V14.00,2013-02-07 05:33:00,
2013-02-06 23:34:00,53.4,44.6,29.91,SE,124,4.0,10.0,72,0.00,,---,0.00,VWS V14.00,2013-02-07 05:34:00,
2013-02-06 23:35:00,53.4,44.6,29.91,SE,124,0.0,4.0,72,0.00,,---,0.00,VWS V14.00,2013-02-07 05:35:00,
2013-02-06 23:36:00,53.4,44.6,29.91,SE,127,3.0,3.0,72,0.00,,---,0.00,VWS V14.00,2013-02-07 05:36:00,
2013-02-06 23:37:00,53.4,44.6,29.91,SE,129,6.0,7.0,72,0.00,,---,0.00,VWS V14.00,2013-02-07 05:37:00,
2013-02-06 23:38:00,53.4,44.6,29.91,SE,127,0.0,12.0,72,0.00,,---,0.00,VWS V14.00,2013-02-07 05:38:00,
2013-02-06 23:39:00,53.4,44.6,29.91,SE,129,2.0,5.0,72,0.00,,---,0.00,VWS V14.00,2013-02-07 05:39:00,
2013-02-06 23:41:00,53.4,44.6,29.91,SE,133,0.0,0.0,72,0.00,,---,0.00,VWS V14.00,2013-02-07 05:41:00,
2013-02-06 23:42:00,53.4,44.6,29.91,SSE,154,0.0,0.0,72,0.00,,---,0.00,VWS V14.00,2013-02-07 05:42:00,
2013-02-06 23:43:00,53.4,44.6,29.91,SE,130,2.0,13.0,72,0.00,,---,0.00,VWS V14.00,2013-02-07 05:43:00,
2013-02-06 23:45:00,53.4,45.0,29.91,SE,133,0.0,4.0,73,0.00,,---,0.00,VWS V14.00,2013-02-07 05:45:00,
2013-02-06 23:46:00,53.4,45.0,29.91,SE,142,5.0,12.0,73,0.00,,---,0.00,VWS V14.00,2013-02-07 05:46:00,
2013-02-06 23:48:00,53.4,45.0,29.91,SE,134,4.0,5.0,73,0.00,,---,0.00,VWS V14.00,2013-02-07 05:48:00,
2013-02-06 23:49:00,53.4,45.0,29.91,ESE,120,0.0,4.0,73,0.00,,---,0.00,VWS V14.00,2013-02-07 05:49:00,
2013-02-06 23:50:00,53.4,44.6,29.91,South,169,0.0,6.0,72,0.00,,---,0.00,VWS V14.00,2013-02-07 05:50:00,
2013-02-06 23:51:00,53.4,45.0,29.91,ESE,122,13.0,13.0,73,0.00,,---,0.00,VWS V14.00,2013-02-07 05:51:00,
2013-02-06 23:52:00,53.4,45.0,29.91,SSE,158,5.0,13.0,73,0.00,,---,0.00,VWS V14.00,2013-02-07 05:52:00,
2013-02-06 23:53:00,53.5,45.4,29.91,ESE,115,1.0,6.0,74,0.00,,---,0.00,VWS V14.00,2013-02-07 05:53:00,
2013-02-06 23:57:00,53.4,45.0,29.91,SE,135,3.0,7.0,73,0.00,,---,0.00,VWS V14.00,2013-02-07 05:57:00,
2013-02-06 23:58:00,53.5,45.4,29.91,SE,129,7.0,7.0,74,0.00,,---,0.00,VWS V14.00,2013-02-07 05:58:00,
2013-02-06 23:59:00,53.5,45.4,29.91,South,177,0.0,9.0,74,0.00,,---,0.00,VWS V14.00,2013-02-07 05:59:00,